Home > Time Zones > World Clock > Weather > Peru > Lima > Past weeks

Flag for Peru Weather past 2 weeks in Lima, Lima, Peru

Now
73 °F

Clear.


Feels Like: 73 °F
Forecast: 71 / 80 °F
Wind: 8 mph from South

Location: Lima-Callao / Aerop. Internacional Jorgechavez

Current Time: Mar 4, 2015 at 11:48:35 PM

Latest Report: Mar 4, 2015 at 11:00 PM


Visibility: 10 mi

Pressure: 29.86 "Hg

Humidity: 83%

Dew point: 68 °F

Location of LimaLocation

Historic Weather in Lima — Graph

°F

Lima temperature yesterday

Maximum temperature yesterday: 79 °F (at 12:00 PM)
Minimum temperature yesterday: 70 °F (at 3:00 AM)
Average temperature yesterday: 73 °F

Past Weeks' High & Low Weather Summary

 TemperatureHumidityPressure
High86 °F (Feb 21, 2:00 PM)94% (Feb 21, 2:00 AM)29.95 "Hg (Feb 21, 2:00 AM)
Low68 °F (Feb 23, 5:00 AM)52% (Feb 21, 2:00 PM)29.77 "Hg (Mar 3, 3:00 PM)
Average74 °F81%29.87 "Hg
* Reported Feb 17 11:00 PM — Mar 4 11:00 PM, Lima, Weather by CustomWeather, © 2015

Note: Actual official high and low records may vary slightly from our data, if they occured in-between our weather recording intervals... More about our weather records

Advertising

Lima weather history for previous 24 hours

 ConditionsComfort  
Time TempWeatherWind HumidityBarometerVisibility
11:00 PM
Wed, Mar 4
73 °FClear.8 mph83%29.86 "Hg10 mi
10:00 PM73 °FPassing clouds.10 mph83%29.86 "HgN/A
9:00 PM73 °FPassing clouds.12 mph83%29.86 "HgN/A
8:00 PM73 °FPassing clouds.13 mph83%29.86 "HgN/A
7:00 PM73 °FPassing clouds.13 mph83%29.83 "HgN/A
6:00 PM73 °FPartly sunny.13 mph78%29.83 "HgN/A
5:00 PM73 °FBroken clouds.10 mph78%29.80 "HgN/A
4:00 PM75 °FPartly sunny.8 mph78%29.80 "HgN/A
3:00 PM79 °FScattered clouds.8 mph70%29.80 "HgN/A
2:00 PM79 °FScattered clouds.8 mph74%29.83 "HgN/A
1:00 PM79 °FPassing clouds.8 mph70%29.83 "HgN/A
12:00 PM79 °FPassing clouds.8 mph70%29.86 "HgN/A
11:00 AM77 °FScattered clouds.6 mph74%29.86 "HgN/A
10:00 AM73 °FBroken clouds.6 mph83%29.86 "HgN/A
9:00 AM72 °FLow clouds.5 mph88%29.86 "HgN/A
8:00 AM70 °FMostly cloudy.3 mph94%29.86 "Hg5 mi
7:00 AM70 °FLow clouds.3 mph94%29.83 "HgN/A
6:00 AM70 °FLow clouds.5 mph94%29.80 "HgN/A
5:00 AM70 °FPassing clouds.5 mph94%29.77 "HgN/A
4:00 AM70 °FPassing clouds.5 mph94%29.77 "HgN/A
3:00 AM70 °FPassing clouds.7 mph94%29.77 "HgN/A
2:00 AM70 °FPassing clouds.7 mph94%29.80 "HgN/A
1:00 AM70 °FClear.6 mph94%29.80 "Hg10 mi
12:00 AM70 °FPassing clouds.9 mph94%29.80 "HgN/A
11:00 PM
Tue, Mar 3
70 °FPassing clouds.13 mph94%29.83 "HgN/A
Weather by CustomWeather, © 2015

See weather overviewHow to use our weather pages